Home   Weather   Burg   Past weeks

Flag for Germany Past Weather in Burg, Saxony-Anhalt, Germany — Yesterday and Last 2 Weeks

46 °F

Drizzle. Fog.

Feels Like: 46 °F
Forecast: 36 / 49 °F
Wind: No wind

Location: Braunschweig Wolfsburg

Current Time: Oct 25, 2016 at 10:41:17 AM

Latest Report: Oct 25, 2016 at 9:50 AM

Visibility: 1 mi

Pressure: 30.15 "Hg

Humidity: 100%

Dew Point: 46 °F

Location of BurgLocation

Past Weather in Burg — Graph


Burg Temperature Yesterday

Maximum temperature yesterday: 45 °F (at 1:50 PM)
Minimum temperature yesterday: 39 °F (at 7:20 AM)
Average temperature yesterday: 43 °F

High & Low Weather Summary for the Past Weeks

High64 °F (Oct 16, 1:50 PM)100% (Oct 10, 9:20 AM)30.24 "Hg (Oct 10, 9:20 AM)
Low39 °F (Oct 24, 7:20 AM)56% (Oct 16, 1:50 PM)29.80 "Hg (Oct 19, 7:50 PM)
Average48 °F88%30.04 "Hg
* Reported Oct 10 9:20 AM — Oct 25 9:20 AM, Burg, Weather by CustomWeather, © 2016

Note: Actual official high and low records may vary slightly from our data, if they occured in-between our weather recording intervals... More about our weather records


Burg Weather History for the Previous 24 Hours

Scroll right to see more
Time TempWeatherWind HumidityBarometerVisibility
9:20 AM
Tue, Oct 25
46 °FDrizzle. Fog.2 mph100%30.12 "Hg1 mi
8:50 AM46 °FDrizzle. Fog.2 mph100%30.12 "Hg2 mi
8:20 AM46 °FFog.No wind93%30.09 "Hg2 mi
7:50 AM45 °FDrizzle. Fog.No wind100%30.07 "Hg2 mi
7:20 AM45 °FLight rain. Fog.No wind100%30.07 "Hg2 mi
6:50 AM45 °FLight rain. Fog.No wind100%30.07 "Hg2 mi
6:20 AM45 °FLight rain. Overcast.3 mph100%30.07 "Hg2 mi
9:50 PM
Mon, Oct 24
45 °FLight rain. Mostly cloudy.7 mph100%30.01 "Hg4 mi
9:20 PM45 °FLight rain. Mostly cloudy.7 mph100%30.01 "Hg4 mi
8:50 PM45 °FLight rain. Low clouds.7 mph100%30.01 "Hg4 mi
8:20 PM45 °FLight rain. Mostly cloudy.8 mph100%30.01 "Hg4 mi
7:50 PM45 °FLight rain. Fog.6 mph100%30.01 "Hg3 mi
7:20 PM45 °FLight rain. Low clouds.6 mph100%30.01 "Hg3 mi
6:50 PM45 °FLight rain. Mostly cloudy.6 mph100%30.01 "Hg4 mi
6:20 PM45 °FRain. Fog.7 mph100%30.01 "Hg3 mi
5:50 PM45 °FRain. Fog.7 mph93%30.01 "Hg3 mi
5:20 PM45 °FRain. Fog.7 mph93%30.01 "Hg2 mi
4:50 PM45 °FLight rain. Fog.8 mph93%30.01 "Hg2 mi
4:20 PM45 °FDrizzle. Fog.7 mph93%30.01 "Hg2 mi
3:50 PM45 °FRain. Fog.7 mph93%29.98 "Hg2 mi
3:20 PM43 °FRain. Fog.9 mph100%29.98 "Hg1 mi
2:50 PM43 °FFog.9 mph100%30.01 "Hg2 mi
2:20 PM43 °FFog.8 mph100%30.01 "Hg3 mi
1:50 PM45 °FPartly sunny.9 mph93%30.01 "Hg4 mi
1:20 PM43 °FPartly sunny.6 mph100%30.01 "Hg4 mi
12:50 PM43 °FBroken clouds.8 mph100%30.01 "Hg4 mi
12:20 PM43 °FFog.6 mph100%30.01 "Hg3 mi
11:50 AM41 °FFog.5 mph100%30.04 "Hg2 mi
11:20 AM41 °FFog.6 mph100%30.01 "Hg2 mi
10:50 AM41 °FFog.6 mph100%30.01 "Hg1 mi
10:20 AM41 °FQuite cool.8 mph100%30.01 "Hg1 mi
Weather by CustomWeather, © 2016

See weather overviewHow to use our weather pages